Find Starlink 5883

NORAD ID: 55956 Int'l Des: 2023-037 Owner: SPXS Country: US Constellation: starlink operational
LEOCIRCULAR

Live Position

Loading 3D Globe...

About Starlink 5883

Description loading...

Upcoming Passes

Passes for default location (London). Set your location on the main map for personalized predictions.

Altitude History

Loading altitude history...

Two-Line Element Set

1 55956U 23037AU 26132.63002029 .00001295 00000-0 11631-3 0 9993
2 55956 69.9991 103.1292 0003525 270.3194 89.7561 14.98327004174055
Epoch: May 12, 2026 • Age: 10 hours

Current Status

Altitude 584.0 km
Velocity 7.57 km/s
Sub-Earth Point 60.59°N, 7.19°W
Launch Date Mar 17, 2023
Age 3.1 years
Type internet

Technical Details

Classification Payload
Mass 305.00 kg
Dry Mass 290.00 kg
Total Mass 305.00 kg
Length 0.20 m
Diameter 2.80 m
Span 9.00 m
Shape Box + pan
Manufacturer SPXS
Bus Type Starlink
Phase Status In Orbit
Owner/State SPXS/US

Most Searched